Location: ??????????
(48.4699°N, 37.9573°E)
Time: 12:44:12
(UTC+00:00)

SJ 16-02 - Pass Details

Date: 20 January 2021
Orbit: 606 x 615 km, 75.0° (Epoch: 27 February)

Event Time Altitude Azimuth Distance (km) Brightness Sun altitude
Rises 17:12:26 0° 229° (SW) 2,869 5.4 -30.1°
Reaches altitude 10° 17:14:54 10° 241° (WSW) 1,967 4.6 -30.5°
Maximum altitude 17:18:44 29° 301° (WNW) 1,138 3.1 -31.2°
Enters shadow 17:18:53 29° 305° (NW) 1,140 3.1 -31.2°
